Tel +39 085 4313451 - Mail info@aeroclubpescara.it

Corso licenza PPL(A)

IMG_8180-1m-500x300

Notizie recenti

24Feb

Cielo in Rosa 2016!

0 Comments
Cielo in Rosa 2016 Dopo il successo avuto lo scorso anno, siamo felici di riproporre in occasione della festa dedicata... Read More →
16Feb

Partnership ITIS “Luigi di Savoia” Chieti

0 Comments
Partnership ITIS “Luigi di Savoia” Chieti In ambito della recente collaborazione con l’Istituto Tecnico Industriale “Luigi di Savoia” di Chieti,... Read More →

Aeroclub vola a Capo Nord

IMG_8180-1m-500x300

Metar/Taf LIBP

LIBP 300550Z 20005KT CAVOK 12/11 Q1022

TAF LIBP 300500Z 3006/0106 VRB06KT 9999 FEW030 BECMG 3010/3012 05010KT BECMG 3016/3018 VRB05KT


Back to Top